Flag for U.S.A. Weather past 2 weeks in Pasco, Washington, U.S.A.

Now
25 °F

Sunny.


Feels Like: 25 °F
Forecast: 21 / 54 °F
Wind: No wind

Location: Tri-Cities Airport

Current Time: Mar 4, 2015 at 8:24:18 AM

Latest Report: Mar 4, 2015 at 7:53 AM


Visibility: 10 mi

Pressure: 30.35 "Hg

Humidity: 78%

Dew point: 19 °F

Location of PascoLocation

Historic Weather in Pasco — Graph

°F

Pasco temperature yesterday

Maximum temperature yesterday: 49 °F (at 2:53 PM)
Minimum temperature yesterday: 22 °F (at 6:53 AM)
Average temperature yesterday: 36 °F

Past Weeks' High & Low Weather Summary

 TemperatureHumidityPressure
High60 °F (Feb 20, 1:53 PM)100% (Feb 19, 2:53 AM)30.56 "Hg (Feb 19, 2:53 AM)
Low16 °F (Mar 1, 5:53 AM)17% (Feb 22, 1:53 PM)29.71 "Hg (Feb 27, 2:53 PM)
Average40 °F63%30.21 "Hg
* Reported Feb 17 6:53 AM — Mar 4 6:53 AM, Pasco, Weather by CustomWeather, © 2015

Note: Actual official high and low records may vary slightly from our data, if they occured in-between our weather recording intervals... More about our weather records

Advertising

Pasco weather history for previous 24 hours

 ConditionsComfort  
Time TempWeatherWind HumidityBarometerVisibility
6:53 AM
Wed, Mar 4
19 °FSunny.5 mph85%30.33 "Hg10 mi
5:53 AM19 °FClear.6 mph85%30.32 "Hg10 mi
4:53 AM18 °FClear.3 mph88%30.31 "Hg10 mi
3:53 AM20 °FClear.3 mph92%30.30 "Hg10 mi
2:53 AM19 °FClear.No wind92%30.30 "Hg10 mi
1:53 AM21 °FClear.No wind81%30.31 "Hg10 mi
12:53 AM21 °FClear.5 mph78%30.29 "Hg10 mi
11:53 PM
Tue, Mar 3
25 °FClear.No wind72%30.28 "Hg10 mi
10:53 PM28 °FClear.5 mph61%30.27 "Hg10 mi
9:53 PM31 °FClear.5 mph61%30.26 "Hg10 mi
8:53 PM34 °FClear.No wind50%30.25 "Hg10 mi
7:53 PM36 °FClear.3 mph44%30.24 "Hg10 mi
6:53 PM38 °FClear.6 mph39%30.24 "Hg10 mi
5:53 PM46 °FClear.No wind22%30.22 "Hg10 mi
4:53 PM47 °FSunny.3 mph22%30.23 "Hg10 mi
3:53 PM47 °FSunny.No wind22%30.22 "Hg10 mi
2:53 PM49 °FSunny.5 mph22%30.24 "Hg10 mi
1:53 PM47 °FSunny.No wind25%30.25 "Hg10 mi
12:53 PM45 °FSunny.3 mph30%30.27 "Hg10 mi
11:53 AM45 °FSunny.7 mph31%30.28 "Hg10 mi
10:53 AM43 °FSunny.3 mph37%30.29 "Hg10 mi
9:53 AM40 °FSunny.3 mph45%30.29 "Hg10 mi
8:53 AM38 °FSunny.5 mph53%30.29 "Hg10 mi
Weather by CustomWeather, © 2015

See weather overviewHow to use our weather pages